Richlands, VA

4:14 PM EDT on April 30, 2017 (GMT -0400)
Tazewell County

Weather History for KJFZ - January, 2014

Change the Weather History Date:

Monday, January 27, 2014

  Actual Average (KBLF) Record (KBLF)
Temperature  
Mean Temperature 30 °F -  
Max Temperature 46 °F 39 °F 65 °F (1999)
Min Temperature 14 °F 22 °F -3 °F (1986)
Degree Days  
Heating Degree Days 34    
Moisture  
Dew Point 16 °F    
Average Humidity 52    
Maximum Humidity 86    
Minimum Humidity 25    
Precipitation  
Precipitation 0.00 in - - ()
Sea Level Pressure  
Sea Level Pressure 29.89 in    
Wind  
Wind Speed 12 mph (WNW)    
Max Wind Speed 22 mph    
Max Gust Speed 32 mph    
Visibility 10 miles    
Events      
Averages and records for this station are not official NWS values.
T = Trace of Precipitation, MM = Missing Value Source: NWS Daily Summary

Daily Weather History Graph

Daily Weather History Graph

Search for Another Location

Airport or City:

Trip Planner

Search our weather history database for the weather conditions in past years. The results will help you decide how hot, cold, wet, or windy it might be!

Date:

Astronomy

Jan. 27, 2014 Rise Set
Actual Time 7:33 AM EST 5:46 PM EST
Civil Twilight 7:05 AM EST 6:14 PM EST
Nautical Twilight 6:34 AM EST 6:45 PM EST
Astronomical Twilight 6:03 AM EST 7:16 PM EST
Moon 4:12 AM EST (1/27) 2:32 PM EST (1/27)
Length of Visible Light 11h 08m
Length of Day
10h 13m
Waning Crescent, 15% of the Moon is Illuminated
Jan 27
Waning Crescent
Jan 30
New
Feb 6
First Quarter
Feb 14
Full
Feb 22
Last Quarter

Hourly Weather History & Observations

Time (EST) Temp. Windchill Dew Point Humidity Pressure Visibility Wind Dir Wind Speed Gust Speed Precip Events Conditions
12:15 AM 45.5 °F 40.3 °F 28.4 °F 51% 29.73 in 10.0 mi WSW 10.4 mph 26.5 mph N/A   Overcast
12:35 AM 45.3 °F 37.8 °F 28.4 °F 52% 29.73 in 10.0 mi WSW 18.4 mph 26.5 mph N/A   Overcast
12:55 AM 45.5 °F 39.6 °F 28.6 °F 52% 29.73 in 10.0 mi SW 12.7 mph 26.5 mph N/A   Overcast
1:15 AM 45.1 °F 39.9 °F 28.9 °F 53% 29.73 in 10.0 mi WSW 10.4 mph 20.7 mph N/A   Overcast
1:35 AM 45.5 °F 39.9 °F 28.8 °F 52% 29.73 in 10.0 mi SW 11.5 mph 20.7 mph N/A   Overcast
1:55 AM 45.5 °F 39.6 °F 28.8 °F 52% 29.72 in 10.0 mi SW 12.7 mph 23.0 mph N/A   Overcast
2:15 AM 45.3 °F 38.7 °F 28.8 °F 52% 29.72 in 10.0 mi SW 15.0 mph 25.3 mph N/A   Mostly Cloudy
2:35 AM 45.5 °F 39.2 °F 28.9 °F 52% 29.73 in 10.0 mi SW 13.8 mph 20.7 mph N/A   Mostly Cloudy
2:55 AM 46.0 °F 39.0 °F 28.9 °F 51% 29.73 in 10.0 mi SW 17.3 mph 29.9 mph N/A   Overcast
3:15 AM 46.2 °F 38.3 °F 29.1 °F 51% 29.73 in 10.0 mi WSW 21.9 mph 32.2 mph N/A   Overcast
3:35 AM 46.0 °F 39.6 °F 29.1 °F 52% 29.74 in 10.0 mi WSW 15.0 mph 25.3 mph N/A   Overcast
3:55 AM 45.9 °F 39.4 °F 28.9 °F 52% 29.75 in 10.0 mi SW 15.0 mph 28.8 mph N/A   Overcast
4:15 AM 45.7 °F 37.6 °F 28.8 °F 52% 29.74 in 10.0 mi WSW 21.9 mph 28.8 mph N/A   Overcast
4:35 AM 45.3 °F 39.3 °F 28.9 °F 53% 29.74 in 10.0 mi SW 12.7 mph 28.8 mph N/A   Overcast
4:55 AM 45.1 °F 37.6 °F 28.8 °F 53% 29.74 in 10.0 mi WSW 18.4 mph 28.8 mph N/A   Overcast
5:15 AM 45.3 °F 39.0 °F 28.8 °F 52% 29.74 in 10.0 mi WSW 13.8 mph 28.8 mph N/A   Overcast
5:35 AM 45.3 °F 39.7 °F 28.8 °F 52% 29.75 in 10.0 mi SW 11.5 mph 25.3 mph N/A   Overcast
5:55 AM 45.3 °F 38.4 °F 28.6 °F 52% 29.75 in 10.0 mi WSW 16.1 mph 25.3 mph N/A   Overcast
6:15 AM 45.1 °F 39.9 °F 28.8 °F 53% 29.76 in 10.0 mi SW 10.4 mph 24.2 mph N/A   Overcast
6:35 AM 45.0 °F 38.9 °F 28.9 °F 53% 29.76 in 10.0 mi WSW 12.7 mph 19.6 mph N/A   Overcast
6:55 AM 45.0 °F 39.7 °F 29.1 °F 54% 29.77 in 10.0 mi WSW 10.4 mph 20.7 mph N/A   Overcast
7:15 AM 44.8 °F 37.4 °F 29.1 °F 54% 29.77 in 10.0 mi WSW 17.3 mph 23.0 mph N/A   Overcast
7:35 AM 44.4 °F 38.2 °F 29.1 °F 55% 29.78 in 10.0 mi WSW 12.7 mph 27.6 mph N/A   Overcast
7:55 AM 44.1 °F 37.4 °F 29.3 °F 56% 29.79 in 10.0 mi WSW 13.8 mph 21.9 mph N/A   Overcast
8:15 AM 44.1 °F 37.7 °F 29.3 °F 56% 29.80 in 10.0 mi WSW 12.7 mph 20.7 mph N/A   Overcast
8:35 AM 43.7 °F 39.1 °F 29.5 °F 57% 29.81 in 10.0 mi West 8.1 mph - N/A   Overcast
8:55 AM 43.2 °F 37.9 °F 29.7 °F 59% 29.82 in 10.0 mi West 9.2 mph 17.3 mph N/A   Overcast
9:15 AM 41.7 °F 34.1 °F 30.9 °F 66% 29.84 in 10.0 mi NW 15.0 mph 26.5 mph N/A   Overcast
9:35 AM 36.9 °F 28.7 °F 30.2 °F 77% 29.87 in 10.0 mi NW 12.7 mph 21.9 mph N/A   Overcast
9:55 AM 33.4 °F 23.9 °F 28.4 °F 82% 29.89 in 10.0 mi NW 13.8 mph 20.7 mph N/A   Overcast
10:15 AM 32.0 °F 25.6 °F 27.5 °F 83% 29.91 in 10.0 mi NW 6.9 mph 19.6 mph N/A   Overcast
10:35 AM 31.8 °F 23.9 °F 26.4 °F 80% 29.92 in 10.0 mi NW 9.2 mph - N/A   Overcast
10:55 AM 31.1 °F 23.7 °F 26.1 °F 82% 29.92 in 10.0 mi West 8.1 mph - N/A   Overcast
11:15 AM 30.7 °F 24.1 °F 25.3 °F 80% 29.93 in 10.0 mi WNW 6.9 mph - N/A   Overcast
11:35 AM 28.9 °F 19.2 °F 24.8 °F 84% 29.93 in 10.0 mi NNW 11.5 mph 17.3 mph N/A   Overcast
11:55 AM 28.2 °F 18.9 °F 24.6 °F 86% 29.93 in 10.0 mi NW 10.4 mph - N/A   Overcast
12:15 PM 27.3 °F 16.1 °F 23.4 °F 85% 29.92 in 10.0 mi NNW 13.8 mph 17.3 mph N/A   Overcast
12:35 PM 26.2 °F 17.8 °F 21.4 °F 82% 29.93 in 10.0 mi NNW 8.1 mph 16.1 mph N/A   Overcast
12:55 PM 25.7 °F 15.7 °F 18.5 °F 74% 29.92 in 10.0 mi NW 10.4 mph - N/A   Overcast
1:15 PM 26.2 °F 17.1 °F 16.7 °F 67% 29.91 in 10.0 mi NW 9.2 mph - N/A   Overcast
1:35 PM 26.6 °F 18.2 °F 13.8 °F 59% 29.91 in 10.0 mi WNW 8.1 mph - N/A   Overcast
1:55 PM 27.3 °F 18.4 °F 12.7 °F 54% 29.91 in 10.0 mi NNW 9.2 mph - N/A   Overcast
2:15 PM 29.3 °F 21.5 °F 11.3 °F 47% 29.91 in 10.0 mi NNW 8.1 mph 17.3 mph N/A   Scattered Clouds
2:35 PM 29.3 °F 22.3 °F 5.2 °F 36% 29.91 in 10.0 mi NW 6.9 mph 16.1 mph N/A   Scattered Clouds
2:55 PM 28.9 °F 21.1 °F 2.5 °F 32% 29.91 in 10.0 mi NW 8.1 mph - N/A   Scattered Clouds
3:15 PM 29.3 °F 20.8 °F 1.8 °F 31% 29.92 in 10.0 mi NNW 9.2 mph - N/A   Overcast
3:35 PM 29.3 °F 23.2 °F 2.1 °F 31% 29.93 in 10.0 mi NW 5.8 mph - N/A   Overcast
3:55 PM 29.3 °F 18.6 °F -0.0 °F 28% 29.93 in 10.0 mi NW 13.8 mph 18.4 mph N/A   Mostly Cloudy
4:15 PM 27.5 °F 18.6 °F -2.6 °F 27% 29.94 in 10.0 mi NW 9.2 mph - N/A   Mostly Cloudy
4:35 PM 27.1 °F 16.9 °F -4.4 °F 25% 29.94 in 10.0 mi NW 11.5 mph - N/A   Mostly Cloudy
4:55 PM 26.2 °F 17.1 °F -4.7 °F 26% 29.95 in 10.0 mi NW 9.2 mph - N/A   Scattered Clouds
5:15 PM 25.5 °F 16.9 °F -3.1 °F 29% 29.97 in 10.0 mi WNW 8.1 mph - N/A   Clear
5:35 PM 23.7 °F 14.0 °F -4.2 °F 30% 29.97 in 10.0 mi NW 9.2 mph - N/A   Clear
5:55 PM 22.8 °F 12.2 °F -3.5 °F 32% 29.98 in 10.0 mi WNW 10.4 mph - N/A   Scattered Clouds
6:15 PM 22.1 °F 13.7 °F -2.4 °F 34% 29.98 in 10.0 mi WNW 6.9 mph - N/A   Scattered Clouds
6:35 PM 22.1 °F 12.8 °F -1.3 °F 36% 30.00 in 10.0 mi NW 8.1 mph - N/A   Clear
6:55 PM 21.4 °F 11.1 °F -0.8 °F 38% 30.01 in 10.0 mi NW 9.2 mph - N/A   Clear
7:15 PM 21.0 °F 13.4 °F -0.4 °F 39% 30.03 in 10.0 mi NW 5.8 mph - N/A   Clear
7:35 PM 20.3 °F 11.5 °F -1.3 °F 39% 30.03 in 10.0 mi WNW 6.9 mph - N/A   Clear
7:55 PM 19.9 °F 12.1 °F -1.1 °F 40% 30.04 in 10.0 mi WNW 5.8 mph - N/A   Clear
8:15 PM 19.8 °F 8.3 °F -0.2 °F 42% 30.05 in 10.0 mi NW 10.4 mph - N/A   Clear
8:35 PM 19.4 °F 9.5 °F 0.5 °F 44% 30.06 in 10.0 mi NW 8.1 mph - N/A   Clear
8:55 PM 18.9 °F 8.0 °F 0.7 °F 45% 30.07 in 10.0 mi NW 9.2 mph - N/A   Clear
9:15 PM 18.3 °F 10.2 °F 0.5 °F 46% 30.08 in 10.0 mi WNW 5.8 mph - N/A   Clear
9:35 PM 17.6 °F 9.3 °F -0.0 °F 46% 30.08 in 10.0 mi WNW 5.8 mph - N/A   Clear
9:55 PM 17.4 °F 5.4 °F -0.2 °F 46% 30.09 in 10.0 mi NW 10.4 mph - N/A   Clear
10:15 PM 17.1 °F 7.6 °F -1.7 °F 44% 30.10 in 10.0 mi NW 6.9 mph - N/A   Clear
10:35 PM 16.7 °F 6.2 °F -0.8 °F 46% 30.10 in 10.0 mi NW 8.1 mph - N/A   Clear
10:55 PM 16.3 °F 4.1 °F 0.1 °F 49% 30.11 in 10.0 mi NW 10.4 mph 17.3 mph N/A   Clear
11:15 PM 15.8 °F 3.4 °F -0.0 °F 50% 30.10 in 10.0 mi NW 10.4 mph 18.4 mph N/A   Clear
11:35 PM 15.3 °F 4.4 °F -0.8 °F 49% 30.11 in 10.0 mi NW 8.1 mph - N/A   Clear
11:55 PM 14.7 °F 2.1 °F -0.8 °F 50% 30.12 in 10.0 mi NNW 10.4 mph - N/A   Clear